Location: Casco Millpond
(44.5581°N, 87.6111°W)
Time: 23:36:02
(UTC+00:00)

SL-23 DEB - Pass Details

Date: 16 January 2026
Orbit: 423 x 3435 km, 51.4° (Epoch: 13 February)

Event Time Altitude Azimuth Distance (km) Brightness Sun altitude
Exits shadow 12:05:25 26° 292° (WNW) 882 4.3 -13.6°
Maximum altitude 12:06:41 38° 341° (NNW) 662 3.9 -13.4°
Drops below altitude 10° 12:09:48 10° 53° (NE) 1,598 6.7 -12.8°
Sets 12:12:12 0° 61° (ENE) 2,639 8.0 -12.4°
